(252554) = 2001 VK105

Discovered at Socorro on 2001-11-12 by LINEAR.

Orbit

Orbit type: Main Belt

Note: WebGL enabled browser required.

epoch2023-09-13.0
epoch JD2460200.5
perihelion date2025-01-05.99103
perihelion JD2460681.49103
argument of perihelion (°)124.79345
ascending node (°)260.00908
inclination (°)7.98710
eccentricity0.2029372
perihelion distance (AU)2.2321506
Tisserand w.r.t. Jupiter3.3
ΔV w.r.t. Earth (km/sec)9.7
semimajor axis (AU)2.8004701
mean anomaly (°)258.84336
mean daily motion (°/day)0.21030880
aphelion distance (AU)3.369
period (years)4.69
P-vector [x]0.89991343
P-vector [y]0.34075513
P-vector [z]0.27210615
Q-vector [x]-0.41404081
Q-vector [y]0.86351027
Q-vector [z]0.28795870
absolute magnitude16.63
phase slope0.15
uncertainty0
referenceMPEC 2023-N24
observations used267
oppositions14
arc length (days)7907
first opposition used2001
last opposition used2023
residual rms (arc-secs)0.71
perturbers coarse indicatorM-v
perturbers precise indicator003Ek
first observation date used2001-11-12.0
last observation date used2023-07-07.0
computer nameMPCLINUX
JD of orbit computation2456847.788851
perihelion JD uncertainty (days)1.7533E-04
argument of perihelion uncertainty (°)6.8957E-05
ascending node uncertainty (°)6.0152E-05
inclination uncertainty (°)9.3185E-06
eccentricity uncertainty 7.3338E-08
perihelion distance uncertainty (AU)2.1782E-07
Minimum Orbit Intersection Distances (in AU)
for orbit epoch: 2460000.5, reference: E2023-N24
Mercury1.90361
Venus1.52163
Earth1.24717
Mars0.80439
Jupiter2.13589
Saturn6.28939
Uranus15.1984
Neptune27.4066

Observations

278 total observations over interval: 2001 11 12.29344 – 2023 07 07.356003
These data are available for download (format description).

Date (UT) J2000 RA J2000 Dec Magn Location Ref
2001 11 12.29344 04 02 46.02 +26 10 11.4 19.1   704 – Lincoln Laboratory ETS, New Mexico MPS 44877
2001 11 12.30817 04 02 45.25 +26 10 06.8 19.8   704 – Lincoln Laboratory ETS, New Mexico MPS 44877
2001 11 12.32292 04 02 44.40 +26 10 01.5 19.7   704 – Lincoln Laboratory ETS, New Mexico MPS 44877
2001 11 12.33764 04 02 43.59 +26 09 56.2 19.8   704 – Lincoln Laboratory ETS, New Mexico MPS 44877
2001 11 12.35236 04 02 42.75 +26 09 50.9 19.5   704 – Lincoln Laboratory ETS, New Mexico MPS 44877
2001 11 19.29096 03 56 21.95 +25 25 21.0 18.9   704 – Lincoln Laboratory ETS, New Mexico MPS 44877
2001 11 19.30563 03 56 21.17 +25 25 14.9 19.1   704 – Lincoln Laboratory ETS, New Mexico MPS 44877
2001 11 19.32030 03 56 20.37 +25 25 08.5 20.7   704 – Lincoln Laboratory ETS, New Mexico MPS 44877
2001 11 19.33497 03 56 19.44 +25 25 02.7 19.2   704 – Lincoln Laboratory ETS, New Mexico MPS 44877
2001 11 19.34964 03 56 18.56 +25 24 56.4 19.4   704 – Lincoln Laboratory ETS, New Mexico MPS 44877
2001 11 24.22120 03 51 46.90 +24 50 53.1 19.1   704 – Lincoln Laboratory ETS, New Mexico MPS 55146
2001 11 24.23598 03 51 46.08 +24 50 45.8 19.7   704 – Lincoln Laboratory ETS, New Mexico MPS 55146
2001 11 24.25176 03 51 45.11 +24 50 40.3 19.6   704 – Lincoln Laboratory ETS, New Mexico MPS 55146
2001 11 24.26627 03 51 44.33 +24 50 34.1 20.1   704 – Lincoln Laboratory ETS, New Mexico MPS 55146
2001 11 24.28078 03 51 43.46 +24 50 27.0 19.5   704 – Lincoln Laboratory ETS, New Mexico MPS 55146
2001 12 10.23352 03 38 40.47 +22 54 20.4 20.1   704 – Lincoln Laboratory ETS, New Mexico MPS 44877
2001 12 10.24888 03 38 39.83 +22 54 14.3 20.1   704 – Lincoln Laboratory ETS, New Mexico MPS 44877
2001 12 10.26412 03 38 39.18 +22 54 07.3 20.2   704 – Lincoln Laboratory ETS, New Mexico MPS 44877
2001 12 10.27970 03 38 38.59 +22 53 59.8 20.0   704 – Lincoln Laboratory ETS, New Mexico MPS 44877
2001 12 11.21753 03 38 01.85 +22 47 25.0 19.6   704 – Lincoln Laboratory ETS, New Mexico MPS 44877
2001 12 11.23342 03 38 01.25 +22 47 18.3 19.6   704 – Lincoln Laboratory ETS, New Mexico MPS 44877
2001 12 11.26548 03 37 59.91 +22 47 04.1 20.0   704 – Lincoln Laboratory ETS, New Mexico MPS 44877
2001 12 11.28120 03 37 59.26 +22 46 58.2 19.5   704 – Lincoln Laboratory ETS, New Mexico MPS 44877
2001 12 15.16959 03 35 42.21 +22 20 23.4 19.6   704 – Lincoln Laboratory ETS, New Mexico MPS 44877
2001 12 15.18773 03 35 41.56 +22 20 16.5 19.8   704 – Lincoln Laboratory ETS, New Mexico MPS 44877
2001 12 15.20445 03 35 40.96 +22 20 10.1 19.7   704 – Lincoln Laboratory ETS, New Mexico MPS 44877
2001 12 15.21955 03 35 40.47 +22 20 04.0 19.9   704 – Lincoln Laboratory ETS, New Mexico MPS 44877
2001 12 18.21956 03 34 11.90 +22 00 36.5 20.1   704 – Lincoln Laboratory ETS, New Mexico MPS 44877
2001 12 18.23470 03 34 11.47 +22 00 31.3 20.0   704 – Lincoln Laboratory ETS, New Mexico MPS 44877
2001 12 18.24985 03 34 11.05 +22 00 25.4 19.9   704 – Lincoln Laboratory ETS, New Mexico MPS 44877
2001 12 18.26499 03 34 10.60 +22 00 18.7 20.1   704 – Lincoln Laboratory ETS, New Mexico MPS 44877
2001 12 18.28034 03 34 10.11 +22 00 13.6 20.3   704 – Lincoln Laboratory ETS, New Mexico MPS 44877
2002 01 14.06676 03 33 13.72 +20 01 26.9 19.7   704 – Lincoln Laboratory ETS, New Mexico MPS 46706
2002 01 14.10363 03 33 14.52 +20 01 22.2 20.0   704 – Lincoln Laboratory ETS, New Mexico MPS 46706
2002 01 14.12005 03 33 14.79 +20 01 19.7 20.3   704 – Lincoln Laboratory ETS, New Mexico MPS 46706
2002 01 14.13518 03 33 15.07 +20 01 17.1 20.3   704 – Lincoln Laboratory ETS, New Mexico MPS 46706
2005 06 29.33799 21 05 50.10 -08 16 49.8 20.7 V 691 – Steward Observatory, Kitt Peak-Spacewatch MPS 137419
2005 06 29.35540 21 05 49.69 -08 16 46.6 20.9 V 691 – Steward Observatory, Kitt Peak-Spacewatch MPS 137419
2005 06 29.37281 21 05 49.29 -08 16 43.2 20.4 V 691 – Steward Observatory, Kitt Peak-Spacewatch MPS 137419
2005 07 04.33232 21 03 41.44 -08 02 41.0 20.7 V 691 – Steward Observatory, Kitt Peak-Spacewatch MPS 137419
2005 07 04.34992 21 03 40.89 -08 02 38.1 20.4 V 691 – Steward Observatory, Kitt Peak-Spacewatch MPS 137419
2005 07 04.36748 21 03 40.35 -08 02 35.4 20.4 V 691 – Steward Observatory, Kitt Peak-Spacewatch MPS 137420
2005 07 30.21477 20 44 45.37 -07 39 07.8 19.2   644 – Palomar Mountain/NEAT MPS 138861
2005 07 30.24498 20 44 43.67 -07 39 09.9 19.0   644 – Palomar Mountain/NEAT MPS 138861
2005 07 30.29824 20 44 40.75 -07 39 12.0 19.4   644 – Palomar Mountain/NEAT MPS 138861
2006 09 28.48394 06 57 16.44 +23 02 08.4 21.7 V 691 – Steward Observatory, Kitt Peak-Spacewatch MPS 180841
2006 09 28.49643 06 57 17.36 +23 02 05.2 21.5 V 691 – Steward Observatory, Kitt Peak-Spacewatch MPS 180841
2006 09 28.50894 06 57 18.28 +23 02 02.9 21.2 V 691 – Steward Observatory, Kitt Peak-Spacewatch MPS 180841
2006 11 01.37662 07 27 35.78 +20 35 16.9 20.8 V G96 – Mt. Lemmon Survey MPS 185298
2006 11 01.38793 07 27 36.07 +20 35 14.1 21.1 V G96 – Mt. Lemmon Survey MPS 185298
2006 11 01.39925 07 27 36.39 +20 35 11.6 20.6 V G96 – Mt. Lemmon Survey MPS 185298
2006 11 01.41086 07 27 36.68 +20 35 08.7 21.1 V G96 – Mt. Lemmon Survey MPS 185298
2010 09 03.36120 23 46 32.73 +13 33 03.0 19.1   704 – Lincoln Laboratory ETS, New Mexico MPS 347065
2010 09 03.37261 23 46 32.33 +13 33 01.2 19.9   704 – Lincoln Laboratory ETS, New Mexico MPS 347065
2010 09 03.38401 23 46 31.78 +13 33 01.4 19.2   704 – Lincoln Laboratory ETS, New Mexico MPS 347065
2010 09 03.39548 23 46 31.34 +13 33 00.8 19.5   704 – Lincoln Laboratory ETS, New Mexico MPS 347065
2010 09 03.40689 23 46 30.78 +13 32 59.4 19.8   704 – Lincoln Laboratory ETS, New Mexico MPS 347065
2010 09 04.31920 23 45 55.11 +13 31 35.9 19.1   704 – Lincoln Laboratory ETS, New Mexico MPS 347065
2010 09 04.33213 23 45 54.66 +13 31 35.2 19.7   704 – Lincoln Laboratory ETS, New Mexico MPS 347065
2010 09 04.34525 23 45 54.03 +13 31 33.3 19.5   704 – Lincoln Laboratory ETS, New Mexico MPS 347065
2010 09 04.35863 23 45 53.44 +13 31 31.5 19.0   704 – Lincoln Laboratory ETS, New Mexico MPS 347065
2010 09 04.37161 23 45 52.88 +13 31 30.2 19.5   704 – Lincoln Laboratory ETS, New Mexico MPS 347065
2010 09 10.29892 23 41 42.22 +13 17 11.0 19.3   704 – Lincoln Laboratory ETS, New Mexico MPS 347888
2010 09 10.31075 23 41 41.66 +13 17 07.9 19.7   704 – Lincoln Laboratory ETS, New Mexico MPS 347888
2010 09 10.32258 23 41 41.08 +13 17 05.5 19.5   704 – Lincoln Laboratory ETS, New Mexico MPS 347888
2010 09 10.33444 23 41 40.58 +13 17 03.5 19.6   704 – Lincoln Laboratory ETS, New Mexico MPS 347888
2010 09 10.34628 23 41 40.02 +13 17 01.2 19.9   704 – Lincoln Laboratory ETS, New Mexico MPS 347888
2010 09 15.38550 23 37 50.08 +12 57 57.4 18.8 V 703 – Catalina Sky Survey MPS 347888
2010 09 15.39289 23 37 49.76 +12 57 54.9 18.9 V 703 – Catalina Sky Survey MPS 347888
2010 09 15.40036 23 37 49.36 +12 57 53.6 19.2 V 703 – Catalina Sky Survey MPS 347888
2010 09 15.40788 23 37 49.00 +12 57 51.7 19.0 V 703 – Catalina Sky Survey MPS 347888
2010 11 02.07260 23 16 26.90 +07 52 36.2 19.9 R H15 – ISON-NM Observatory, Mayhill MPS 353686
2010 11 02.09944 23 16 27.09 +07 52 28.3 19.6 R H15 – ISON-NM Observatory, Mayhill MPS 353686
2010 11 02.12627 23 16 27.28 +07 52 20.8 19.9 R H15 – ISON-NM Observatory, Mayhill MPS 353686
2010 11 02.15328 23 16 27.49 +07 52 11.8 19.5 R H15 – ISON-NM Observatory, Mayhill MPS 353686
2012 02 13.36264 08 53 34.637 +07 04 13.56 21.1 g F51 – Pan-STARRS 1, Haleakala MPS 412828
2012 02 13.37578 08 53 33.949 +07 04 16.19 21.0 g F51 – Pan-STARRS 1, Haleakala MPS 412828
2012 02 13.38962 08 53 33.206 +07 04 19.23 20.6 r F51 – Pan-STARRS 1, Haleakala MPS 412828
2012 02 13.40215 08 53 32.549 +07 04 21.34 20.6 r F51 – Pan-STARRS 1, Haleakala MPS 412828
2012 02 14.49236 08 52 36.801 +07 07 57.92 20.3 i F51 – Pan-STARRS 1, Haleakala MPS 412828
2012 02 14.50724 08 52 36.038 +07 08 01.00 20.4 i F51 – Pan-STARRS 1, Haleakala MPS 412829
2013 04 16.03021 13 14 15.67 -17 58 35.6 22.3 r W84 – Cerro Tololo-DECam MPS 470557
2013 04 16.04269 13 14 15.05 -17 58 31.3 22.3 r W84 – Cerro Tololo-DECam MPS 470557
2013 04 17.01234 13 13 28.76 -17 52 52.8 22.4 r W84 – Cerro Tololo-DECam MPS 470557
